GSAT0233 (GALILEO 33)

Last updated on Fri Sep 04 2026 00:02:49 GMT+0000 (Coordinated Universal Time)

1 67160U 25302A 26242.14697713 .00000028 00000+0 00000+0 0 9994 2 67160 54.3807 100.0234 0002467 140.5217 46.9669 1.70474129 4388
UTC large
Height (km)
Speed (km/s)
/
Latitude / Longitude
Inclination (degrees)
Orbital Period (minutes)
Azimuth
Elevation
Range (km)
Doppler Factor

Next 0 passes for location: London (51.5072 / 0.1276)

No passes found over London.
GSAT0233 (GALILEO 33)